Location: Albany
(35.0170°S, 117.8920°E)
Time: 01:07:14
(UTC+08:00)

A-11 Canister half - Pass Details

Date: 28 January 2021
Orbit: 1525 x 1684 km, 47.3° (Epoch: 01 March)

Event Time Altitude Azimuth Distance (km) Brightness Sun altitude
Rises 08:34:31 0° 236° (WSW) 4,869 11.2 37.3°
Reaches altitude 10° 08:37:43 10° 239° (WSW) 3,858 10.8 38.0°
Maximum altitude 08:47:21 64° 317° (NW) 1,721 9.7 39.9°
Drops below altitude 10° 08:56:37 10° 36° (NE) 3,716 11.6 41.8°
Sets 08:59:39 0° 39° (NE) 4,681 12.0 42.4°
